Location: Unspecified
(0.0000°N, 0.0000°E)
Time: 00:19:56
(UTC+00:00)

Hubble Space Telescope - Visible Passes

Search period start: 17 July 2019 00:00
Search period end: 27 July 2019 00:00
Orbit: 536 x 540 km, 28.5° (Epoch: 15 July)

Date Brightness Start Highest point End Pass type
(mag) Time Alt. Az. Time Alt. Az. Time Alt. Az.
17 Jul 3.6 03:58:40 10° SE 03:58:40 10° SE 03:58:45 10° SE visible
17 Jul 1.0 05:34:20 10° SW 05:38:26 68° SSE 05:42:32 10° ENE visible
17 Jul 3.0 19:11:40 10° WSW 19:14:21 16° SSW 19:16:36 11° S visible
18 Jul 3.7 03:48:54 11° ESE 03:48:54 11° ESE 03:49:19 10° ESE visible
18 Jul 0.7 05:24:15 13° WSW 05:27:55 83° NNW 05:32:03 10° ENE visible
18 Jul 3.2 19:02:12 10° SW 19:03:52 12° SSW 19:05:34 10° S visible
19 Jul 3.8 03:39:08 11° ESE 03:39:08 11° ESE 03:39:27 10° E visible
19 Jul 1.0 05:14:29 18° WSW 05:17:23 57° NNW 05:21:26 10° NE visible
20 Jul 4.1 03:29:21 10° E 03:29:21 10° E 03:29:22 10° E visible
20 Jul 1.6 05:04:42 22° W 05:06:51 39° NNW 05:10:44 10° NE visible
21 Jul 2.1 04:54:54 22° WNW 04:56:21 28° NNW 04:59:55 10° NNE visible
22 Jul 2.5 04:45:04 20° NW 04:45:51 21° NNW 04:48:58 10° NNE visible
23 Jul 2.9 04:35:12 15° NNW 04:35:21 15° NNW 04:37:48 10° N visible
24 Jul 3.3 04:25:18 11° NNW 04:25:18 11° NNW 04:26:09 10° N visible
